Portage, MI

4:54 AM EDT on August 24, 2016 (GMT -0400)
Kalamazoo-Battle Creek International

Weather History for KAZO - May, 2013

Change the Weather History Date:

Wednesday, May 8, 2013

  Actual Average Record
Temperature  
Mean Temperature 65 °F 57 °F  
Max Temperature 81 °F 68 °F 87 °F (2014)
Min Temperature 49 °F 46 °F 29 °F (1948)
Degree Days  
Heating Degree Days 0 9  
Month to date heating degree days 6 79  
Since 1 July heating degree days 6138 6222  
Cooling Degree Days 0 1  
Month to date cooling degree days 17 2  
Year to date cooling degree days 19 6  
Growing Degree Days 15 (Base 50)    
Moisture  
Dew Point 52 °F    
Average Humidity 64    
Maximum Humidity 96    
Minimum Humidity 32    
Precipitation  
Precipitation 0.47 in 0.13 in 1.25 in (1969)
Month to date precipitation 0.47 0.96  
Year to date precipitation 12.06 9.53  
Sea Level Pressure  
Sea Level Pressure 30.00 in    
Wind  
Wind Speed 3 mph (SSE)    
Max Wind Speed 18 mph    
Max Gust Speed 23 mph    
Visibility 9 miles    
Events Rain , Thunderstorm    
T = Trace of Precipitation, MM = Missing Value Source: NWS Daily Summary

Daily Weather History Graph

Daily Weather History Graph

Search for Another Location

Airport or City:

Trip Planner

Search our weather history database for the weather conditions in past years. The results will help you decide how hot, cold, wet, or windy it might be!

Date:

Astronomy

May. 08, 2013 Rise Set
Actual Time 6:28 AM EDT 8:49 PM EDT
Civil Twilight 5:57 AM EDT 9:20 PM EDT
Nautical Twilight 5:18 AM EDT 9:59 PM EDT
Astronomical Twilight 4:35 AM EDT 10:43 PM EDT
Moon 5:37 AM EDT (5/8) 7:46 PM EDT (5/8)
Length of Visible Light 15h 23m
Length of Day
14h 20m
Waning Crescent, 2% of the Moon is Illuminated
May 8
Waning Crescent
May 9
New
May 18
First Quarter
May 25
Full
May 31
Last Quarter

Hourly Weather History & Observations

Time (EDT) Temp. Dew Point Humidity Pressure Visibility Wind Dir Wind Speed Gust Speed Precip Events Conditions
12:53 AM 57.0 °F 51.1 °F 81% 30.02 in 10.0 mi Calm Calm - N/A   Clear
1:53 AM 54.0 °F 51.1 °F 90% 30.02 in 10.0 mi Calm Calm - N/A   Clear
2:53 AM 53.1 °F 50.0 °F 89% 30.01 in 10.0 mi Calm Calm - N/A   Clear
3:53 AM 53.1 °F 51.1 °F 93% 30.01 in 10.0 mi Calm Calm - N/A   Clear
4:53 AM 52.0 °F 50.0 °F 93% 30.01 in 8.0 mi Calm Calm - N/A   Clear
5:53 AM 51.1 °F 50.0 °F 96% 30.01 in 9.0 mi Calm Calm - N/A   Partly Cloudy
6:53 AM 51.1 °F 48.9 °F 92% 30.02 in 7.0 mi Calm Calm - N/A   Clear
7:53 AM 57.0 °F 53.1 °F 87% 30.03 in 10.0 mi Calm Calm - N/A   Clear
8:53 AM 64.0 °F 53.1 °F 67% 30.04 in 10.0 mi Calm Calm - N/A   Clear
9:53 AM 71.1 °F 48.9 °F 45% 30.04 in 10.0 mi Calm Calm - N/A   Clear
10:53 AM 73.9 °F 50.0 °F 43% 30.03 in 10.0 mi Variable 3.5 mph - N/A   Clear
11:53 AM 75.0 °F 48.0 °F 38% 30.02 in 10.0 mi Variable 3.5 mph - N/A   Clear
12:53 PM 75.9 °F 50.0 °F 40% 30.02 in 10.0 mi SSW 5.8 mph - N/A   Scattered Clouds
1:53 PM 78.1 °F 48.9 °F 36% 30.00 in 10.0 mi North 4.6 mph - N/A   Mostly Cloudy
2:53 PM 78.1 °F 48.9 °F 36% 29.99 in 10.0 mi Variable 4.6 mph - N/A   Mostly Cloudy
3:53 PM 79.0 °F 46.9 °F 32% 29.97 in 10.0 mi Calm Calm - N/A   Mostly Cloudy
4:50 PM 77.0 °F 48.2 °F 36% 29.97 in 10.0 mi ENE 4.6 mph - N/A Thunderstorm Thunderstorm
4:53 PM 77.0 °F 48.0 °F 36% 29.96 in 10.0 mi NE 3.5 mph - N/A Thunderstorm Thunderstorm
5:29 PM 73.4 °F 51.8 °F 47% 29.97 in 10.0 mi SSW 6.9 mph - 0.00 in   Overcast
5:53 PM 72.0 °F 53.1 °F 51% 29.96 in 10.0 mi SSW 8.1 mph - 0.00 in   Mostly Cloudy
6:06 PM 69.8 °F 55.4 °F 60% 29.98 in 8.0 mi Calm Calm - 0.01 in Rain , Thunderstorm Light Thunderstorms and Rain
6:53 PM 66.9 °F 54.0 °F 63% 29.97 in 7.0 mi SSW 10.4 mph - 0.30 in Rain , Thunderstorm Light Thunderstorms and Rain
7:28 PM 64.4 °F 53.6 °F 68% 30.00 in 1.8 mi NNE 6.9 mph 23.0 mph 0.13 in Rain , Thunderstorm Light Thunderstorms and Rain
7:40 PM 62.6 °F 55.4 °F 77% 29.99 in 3.0 mi SSE 8.1 mph - 0.17 in Rain , Thunderstorm Light Thunderstorms and Rain
7:50 PM 62.6 °F 55.4 °F 77% 29.99 in 10.0 mi South 6.9 mph - 0.17 in Rain Light Rain
7:53 PM 63.0 °F 55.0 °F 75% 29.99 in 10.0 mi South 9.2 mph - 0.17 in   Overcast
8:53 PM 62.1 °F 54.0 °F 75% 29.98 in 10.0 mi South 3.5 mph - N/A   Clear
9:53 PM 60.1 °F 55.9 °F 86% 29.99 in 10.0 mi Calm Calm - N/A   Clear
10:53 PM 59.0 °F 57.0 °F 93% 29.99 in 10.0 mi Calm Calm - N/A   Clear
11:53 PM 57.0 °F 55.0 °F 93% 29.98 in 10.0 mi Calm Calm - N/A   Clear